Temperature
3 3 2 2 2 2 1 1 -1 -3 -1 -0 0 1 1 1 1 1 1 0 -0 -0 -1 -1 -1 -1 -1 -1 -1 -1 -1 -2 -2 -2 -2 -2 -2 -2
3 2 2 2 2 1 1 0 -1 -2 -3 -1 -1 -0 -0 -0 0 -0 -0 -1 -1 -1 -2 -2 -2 -2 -2 -2 -2 -2 -2 -2 -2 -2 -2 -2 -2 -2
2 2 2 2 1 1 0 -0 -1 -2 -3 -2 -2 -2 -2 -1 -1 -1 -1 -2 -2 -2 -2 -3 -3 -3 -3 -3 -2 -2 -2 -2 -2 -3 -3 -3 -3 -2
2 1 1 1 0 -0 -1 -1 -1 -2 -3 -3 -2 -3 -2 -2 -2 -2 -2 -3 -3 -3 -3 -4 -4 -3 -3 -3 -3 -3 -3 -3 -3 -3 -3 -3 -3 -3
1 1 1 -0 -0 -1 -1 -1 -2 -2 -3 -4 -3 -3 -4 -3 -3 -3 -3 -3 -4 -4 -4 -4 -4 -4 -4 -4 -4 -3 -3 -3 -3 -3 -4 -4 -4 -4
0 -0 -1 -1 -1 -1 -2 -2 -2 -3 -3 -4 -4 -4 -4 -4 -5 -4 -4 -4 -4 -4 -5 -5 -5 -5 -5 -4 -4 -4 -4 -4 -4 -4 -4 -4 -4 -4
-1 -1 -1 -1 -2 -2 -2 -2 -3 -3 -4 -5 -5 -5 -5 -5 -5 -4 -5 -5 -5 -5 -5 -5 -5 -5 -5 -5 -4 -4 -4 -4 -4 -5 -5 -5 -5 -5
-2 -2 -2 -2 -2 -2 -2 -3 -3 -3 -4 -4 -5 -5 -5 -5 -5 -5 -6 -6 -7 -6 -6 -6 -6 -6 -5 -5 -5 -4 -4 -4 -4 -5 -5 -5 -5 -5
-3 -3 -3 -3 -3 -3 -3 -3 -3 -3 -3 -3 -4 -4 -4 -4 -5 -5 -6 -6 -6 -6 -6 -6 -6 -6 -5 -5 -5 -5 -5 -5 -5 -5 -5 -6 -6 -6
-4 -3 -3 -3 -3 -3 -3 -3 -3 -3 -3 -3 -3 -4 -4 -4 -4 -5 -5 -6 -6 -6 -7 -7 -7 -6 -6 -5 -5 -5 -5 -5 -5 -6 -6 -6 -6 -6
-4 -4 -4 -4 -3 -4 -4 -4 -4 -4 -4 -4 -4 -4 -4 -4 -5 -5 -6 -7 -7 -7 -7 -7 -7 -6 -6 -6 -5 -5 -5 -6 -6 -6 -6 -6 -6 -6
-4 -4 -4 -4 -4 -4 -4 -4 -4 -4 -4 -4 -4 -5 -5 -5 -5 -5 -6 -6 -7 -7 -7 -7 -7 -7 -7 -6 -5 -5 -5 -6 -6 -6 -6 -6 -6 -7
-4 -4 -4 -4 -4 -4 -4 -4 -4 -4 -4 -4 -5 -5 -5 -5 -5 -5 -6 -6 -6 -7 -6 -7 -7 -7 -7 -7 -6 -6 -6 -6 -6 -6 -6 -6 -6 -7
-4 -4 -4 -4 -4 -4 -4 -4 -4 -4 -4 -4 -5 -5 -5 -5 -5 -6 -6 -6 -6 -6 -6 -7 -7 -7 -7 -8 -7 -7 -6 -6 -7 -6 -6 -6 -6 -7
-5 -5 -5 -4 -4 -4 -4 -4 -4 -4 -4 -5 -5 -5 -5 -5 -6 -6 -6 -6 -7 -7 -7 -7 -7 -7 -8 -8 -8 -8 -7 -7 -7 -7 -7 -7 -7 -7
-5 -5 -5 -5 -5 -5 -5 -5 -5 -5 -5 -5 -5 -5 -5 -6 -6 -6 -6 -7 -7 -7 -7 -7 -7 -7 -8 -8 -8 -8 -8 -8 -7 -7 -8 -8 -8 -8
-5 -5 -5 -5 -5 -5 -5 -5 -5 -5 -5 -5 -5 -6 -6 -6 -6 -6 -6 -7 -7 -7 -7 -7 -7 -8 -8 -8 -9 -8 -8 -8 -8 -8 -9 -9 -9 -9
-5 -5 -5 -5 -5 -5 -6 -6 -6 -5 -6 -6 -6 -6 -6 -6 -6 -6 -6 -7 -7 -7 -7 -7 -8 -8 -9 -9 -8 -8 -8 -8 -8 -9 -10 -10 -10 -9
-5 -6 -6 -6 -6 -6 -6 -6 -6 -6 -6 -6 -6 -6 -6 -6 -6 -6 -7 -7 -7 -7 -7 -8 -8 -9 -10 -10 -9 -8 -9 -9 -9 -10 -10 -11 -11 -10
-6 -6 -6 -6 -6 -6 -6 -6 -6 -6 -6 -6 -6 -6 -6 -7 -7 -7 -7 -7 -8 -8 -8 -8 -8 -9 -9 -10 -10 -9 -9 -10 -10 -11 -11 -11 -11 -10
-6 -7 -7 -7 -7 -7 -7 -6 -7 -7 -7 -7 -7 -7 -7 -7 -7 -7 -7 -8 -8 -8 -8 -8 -8 -9 -10 -11 -11 -10 -9 -9 -10 -11 -11 -11 -11 -11
-7 -7 -7 -7 -7 -7 -7 -7 -7 -7 -7 -7 -7 -7 -7 -7 -7 -7 -8 -8 -8 -8 -8 -8 -9 -9 -10 -11 -11 -11 -10 -9 -10 -10 -11 -11 -11 -11
-7 -7 -7 -7 -7 -7 -7 -7 -7 -7 -7 -7 -7 -7 -7 -8 -8 -8 -8 -8 -9 -9 -9 -9 -9 -10 -10 -10 -11 -11 -11 -11 -11 -11 -10 -10 -10 -10
Wind_Speed
16 17 17 15 13 14 13 13 13 14 14 9 9 10 14 18 24 22 22 28 31 32 33 33 32 32 30 29 27 27 26 25 25 24 25 25 25 25
14 16 17 15 14 14 14 14 15 16 15 6 9 8 11 12 22 22 21 28 31 31 31 32 32 32 31 29 28 27 27 26 26 26 26 26 26 26
15 16 19 17 15 14 14 14 15 15 21 16 8 9 12 12 12 15 19 20 20 29 30 31 32 31 31 30 29 28 28 27 27 27 27 27 27 27
16 16 18 15 18 15 14 16 16 16 19 23 10 9 13 12 12 11 11 16 16 26 29 29 30 31 31 30 29 29 28 28 28 28 28 28 28 28
15 16 17 15 18 15 16 16 15 16 16 19 17 9 10 9 10 11 12 10 13 21 26 29 30 31 31 30 30 29 29 28 28 28 28 28 28 29
15 15 16 16 18 17 16 17 16 16 16 17 17 10 9 6 8 11 11 11 12 12 18 22 25 29 30 30 30 29 29 29 29 28 28 29 29 29
15 15 16 20 23 20 16 14 14 15 15 16 17 13 11 8 9 9 13 10 11 11 10 11 11 11 13 23 27 28 28 28 28 28 29 29 29 29
15 14 15 20 24 28 30 28 23 18 18 17 16 16 14 13 11 11 11 10 10 8 11 12 10 11 10 12 23 26 27 27 27 27 28 29 29 30
14 13 13 13 19 15 21 28 27 30 28 20 20 19 15 13 13 14 13 11 13 7 8 10 9 12 10 15 25 27 27 27 27 28 28 29 30 31
13 14 14 14 14 15 14 15 16 17 19 17 16 15 14 12 14 15 14 14 9 8 9 8 8 10 10 10 23 26 27 27 28 28 29 30 30 31
13 13 14 14 21 24 17 15 15 15 21 27 25 21 24 25 19 12 12 11 11 10 10 8 6 8 9 10 15 25 26 27 27 27 28 29 29 30
11 12 18 19 22 23 15 13 15 13 11 12 15 17 15 17 24 17 14 13 8 8 9 9 7 6 6 7 10 10 13 21 25 26 27 28 29 18
12 10 10 20 23 23 20 13 17 14 10 11 10 10 9 8 10 11 12 12 11 7 7 10 8 8 7 4 5 8 9 10 11 15 22 27 28 23
11 10 11 21 23 23 18 17 21 18 8 8 9 9 9 9 9 9 10 12 11 9 9 9 7 8 7 7 6 5 7 8 10 12 11 20 24 28
12 18 21 23 21 15 17 19 15 8 6 8 9 9 9 8 8 7 7 8 9 9 9 10 8 8 8 9 8 7 6 8 10 12 12 13 14 14
13 16 20 20 16 14 13 11 7 6 7 8 7 7 6 7 8 8 7 7 7 7 9 11 11 10 10 10 10 11 9 7 7 9 12 13 14 14
12 8 7 7 6 6 7 7 7 7 8 6 7 7 7 8 8 8 7 7 7 7 7 7 8 9 10 8 10 12 12 12 12 12 12 15 15 15
15 8 8 7 7 7 7 7 6 7 7 7 7 7 7 8 8 7 6 7 8 8 7 6 5 3 3 7 15 14 13 13 12 12 13 15 18 16
10 8 8 8 8 7 7 7 6 6 6 6 7 7 7 7 7 7 7 7 7 7 7 6 6 7 8 9 8 15 13 12 11 12 13 15 18 17
7 8 8 8 7 7 7 6 6 5 5 5 5 5 6 6 6 7 7 8 7 7 6 6 8 10 11 9 7 7 15 14 13 14 15 15 18 23
8 8 8 8 7 7 6 6 5 5 5 5 5 5 5 6 6 7 7 11 9 7 8 9 10 13 7 5 8 9 9 17 19 16 15 16 18 18
9 8 8 7 7 6 5 5 4 4 4 4 4 4 5 6 6 7 7 7 7 8 8 6 5 5 5 9 13 13 12 11 16 25 27 26 18 15
9 8 7 7 6 5 4 4 5 4 4 4 4 4 5 5 5 6 7 7 7 7 6 6 5 5 8 10 12 12 15 15 12 14 15 23 30 34
Wind_Direction
238 237 237 239 234 233 233 230 240 263 266 223 212 215 219 224 231 234 232 239 243 243 242 241 241 241 242 244 246 248 251 254 256 258 259 259 261 263
239 238 238 239 237 234 233 232 230 241 262 237 210 201 210 222 230 232 230 238 243 245 244 243 241 241 241 242 244 247 249 252 254 256 257 258 259 262
244 241 242 237 238 236 232 232 233 232 251 258 210 203 206 218 229 229 227 232 238 243 244 244 243 241 241 243 244 246 249 251 253 255 257 258 260 262
249 244 246 242 239 238 235 234 234 231 240 256 245 212 216 217 221 225 227 229 227 239 244 246 245 243 242 242 244 247 249 251 253 255 257 259 261 263
252 247 247 242 243 240 236 237 236 236 236 248 254 228 224 217 221 229 231 230 227 235 242 245 246 245 243 243 245 246 248 250 252 254 255 258 260 262
256 251 249 244 243 241 240 238 236 237 237 242 251 240 227 205 211 224 232 227 231 231 237 241 243 245 245 246 246 247 248 250 251 253 255 257 259 261
259 252 250 249 248 247 243 239 233 237 237 241 246 244 232 212 217 216 230 227 227 223 228 234 237 239 240 246 246 248 248 249 251 254 256 257 259 261
265 260 255 258 259 259 257 251 238 232 233 235 241 240 235 224 219 217 222 223 232 208 220 231 225 233 232 233 243 247 248 250 252 254 256 257 259 260
271 269 266 260 261 251 257 260 257 249 237 231 236 237 233 221 216 219 218 216 226 199 197 227 220 229 228 233 239 241 244 247 249 252 255 257 259 261
273 269 268 265 257 257 249 248 249 253 254 247 239 237 232 222 214 217 219 223 227 210 198 223 214 225 227 226 238 241 244 246 249 252 256 258 260 262
273 268 268 266 268 270 262 253 251 248 253 253 250 244 237 232 220 215 215 219 228 221 206 215 217 224 228 230 235 241 245 248 251 255 257 259 261 264
277 268 272 274 273 272 264 256 254 250 239 244 251 255 250 240 232 216 210 215 217 217 199 202 207 200 231 229 228 231 241 248 252 256 259 261 263 265
284 278 270 279 280 278 272 259 257 253 237 233 236 238 237 234 234 224 210 211 213 213 190 187 200 201 213 224 218 219 223 234 245 254 259 261 262 263
290 285 279 283 283 280 277 267 265 262 241 228 231 230 227 226 224 221 216 214 215 212 189 183 194 194 205 228 243 227 220 227 237 247 249 257 261 262
286 286 289 290 289 285 283 279 274 261 238 234 232 230 223 217 207 208 210 213 216 215 204 197 202 202 211 233 246 245 247 245 241 247 250 251 252 254
288 286 290 290 287 279 278 280 269 254 244 239 235 229 210 200 203 201 204 202 214 222 215 210 209 210 224 234 243 252 248 247 241 243 251 256 255 252
294 286 282 279 270 267 267 262 254 252 253 237 231 225 210 204 205 200 198 196 206 214 214 211 211 216 224 229 243 249 252 254 254 255 257 262 260 255
304 296 292 283 276 273 271 267 257 246 240 234 229 224 214 205 202 196 195 200 210 216 216 204 189 198 239 247 234 246 250 253 255 253 254 263 267 261
302 292 289 285 278 272 267 263 261 252 239 233 228 220 212 204 198 198 198 203 213 218 217 201 193 203 235 255 241 226 238 251 257 259 257 259 266 269
288 288 287 283 280 274 268 264 260 251 236 228 221 213 205 199 199 200 201 204 212 216 221 212 209 214 228 249 258 246 242 249 259 264 266 267 268 271
293 288 285 282 278 274 270 265 258 248 235 223 215 208 205 203 206 205 206 217 217 217 225 230 228 232 240 250 263 260 248 250 254 261 269 274 276 276
294 291 287 282 279 275 269 263 257 247 233 225 219 212 207 205 209 207 208 214 218 222 232 242 233 228 227 245 259 270 274 267 264 267 266 263 267 270
294 291 288 286 281 274 268 259 250 246 233 222 219 214 208 210 211 211 213 216 220 227 233 243 242 236 242 249 262 271 276 280 281 279 274 268 267 267
Height
1439 1437 1435 1433 1432 1431 1430 1430 1429 1421 1412 1413 1416 1418 1421 1424 1425 1426 1427 1429 1431 1433 1436 1438 1441 1444 1446 1449 1451 1453 1454 1456 1457 1459 1460 1462 1463 1464
1428 1425 1422 1421 1420 1419 1418 1417 1416 1413 1404 1398 1403 1406 1410 1411 1413 1414 1415 1418 1419 1421 1424 1426 1429 1432 1435 1438 1440 1442 1444 1445 1447 1449 1450 1452 1454 1455
1416 1413 1410 1409 1408 1406 1405 1404 1403 1401 1395 1387 1392 1394 1397 1399 1402 1403 1404 1405 1407 1410 1412 1415 1418 1421 1424 1426 1428 1431 1433 1435 1436 1438 1440 1442 1444 1445
1404 1402 1398 1398 1395 1394 1393 1390 1389 1388 1386 1379 1379 1383 1384 1387 1390 1391 1393 1394 1395 1398 1400 1403 1406 1409 1412 1415 1417 1419 1422 1424 1426 1427 1429 1431 1433 1434
1392 1389 1386 1385 1382 1382 1380 1378 1377 1377 1375 1371 1367 1371 1373 1375 1377 1379 1380 1382 1383 1385 1388 1391 1394 1397 1400 1403 1406 1408 1410 1413 1415 1416 1418 1420 1422 1423
1380 1377 1375 1373 1370 1369 1368 1366 1365 1365 1364 1361 1358 1360 1362 1363 1366 1366 1367 1369 1371 1374 1376 1379 1381 1384 1388 1391 1394 1397 1399 1401 1404 1405 1407 1409 1410 1412
1368 1365 1363 1361 1359 1357 1355 1353 1354 1353 1352 1351 1349 1349 1350 1352 1351 1353 1356 1358 1359 1362 1365 1367 1370 1372 1375 1379 1382 1385 1388 1390 1392 1394 1396 1397 1399 1400
1356 1354 1352 1350 1348 1346 1345 1344 1343 1341 1340 1340 1338 1337 1338 1340 1342 1344 1346 1348 1349 1351 1354 1355 1359 1360 1363 1367 1371 1374 1377 1379 1381 1382 1384 1385 1387 1388
1347 1343 1340 1338 1337 1334 1333 1332 1332 1331 1330 1329 1326 1325 1327 1330 1334 1335 1336 1337 1338 1342 1344 1344 1348 1349 1353 1356 1360 1363 1365 1367 1369 1371 1372 1374 1375 1376
1337 1334 1330 1327 1326 1324 1321 1319 1318 1319 1320 1319 1317 1316 1318 1321 1323 1325 1327 1328 1331 1333 1335 1336 1338 1340 1344 1346 1350 1353 1355 1357 1358 1360 1361 1362 1363 1363
1327 1324 1321 1318 1316 1314 1312 1309 1307 1306 1308 1308 1308 1308 1309 1311 1313 1316 1317 1319 1320 1322 1325 1327 1328 1332 1335 1336 1340 1342 1344 1346 1347 1349 1350 1351 1351 1351
1318 1315 1313 1310 1307 1305 1303 1301 1298 1297 1298 1297 1298 1299 1300 1302 1304 1305 1306 1309 1310 1313 1315 1319 1321 1325 1325 1326 1329 1332 1333 1335 1336 1337 1338 1338 1338 1338
1310 1306 1304 1302 1299 1297 1295 1292 1290 1290 1289 1288 1288 1289 1290 1292 1294 1296 1298 1299 1302 1304 1307 1311 1313 1315 1317 1317 1319 1321 1322 1323 1324 1324 1324 1325 1325 1325
1303 1299 1296 1293 1290 1288 1286 1284 1283 1283 1281 1281 1280 1281 1282 1283 1285 1288 1290 1292 1294 1297 1300 1303 1305 1307 1309 1309 1310 1310 1311 1312 1312 1311 1310 1310 1310 1309
1296 1292 1289 1286 1283 1280 1278 1277 1276 1275 1274 1273 1273 1273 1275 1276 1278 1280 1282 1285 1287 1289 1292 1294 1297 1299 1300 1300 1300 1301 1300 1300 1300 1299 1298 1296 1295 1294
1288 1284 1281 1278 1275 1273 1271 1270 1269 1268 1267 1266 1266 1267 1268 1269 1271 1273 1275 1277 1279 1281 1284 1286 1289 1291 1291 1291 1292 1290 1290 1288 1287 1287 1285 1282 1281 1279
1281 1277 1273 1270 1268 1266 1264 1262 1261 1260 1260 1260 1260 1260 1261 1262 1264 1266 1269 1271 1272 1274 1276 1279 1281 1282 1282 1283 1281 1279 1279 1277 1277 1276 1273 1268 1266 1264
1275 1270 1267 1264 1261 1259 1257 1255 1254 1253 1253 1253 1254 1254 1255 1256 1258 1260 1262 1264 1265 1267 1269 1271 1273 1273 1273 1271 1272 1269 1268 1266 1265 1264 1262 1257 1250 1249
1269 1264 1261 1258 1255 1253 1251 1249 1248 1247 1247 1247 1247 1248 1249 1251 1252 1254 1255 1257 1258 1260 1261 1263 1264 1264 1263 1260 1259 1261 1259 1256 1254 1252 1249 1245 1238 1234
1263 1259 1256 1253 1250 1248 1245 1244 1242 1242 1242 1242 1242 1243 1244 1245 1246 1248 1249 1251 1252 1253 1254 1255 1255 1255 1254 1252 1250 1248 1250 1247 1244 1240 1236 1232 1226 1221
1257 1253 1250 1247 1245 1243 1240 1239 1237 1237 1237 1237 1237 1238 1239 1240 1241 1242 1243 1244 1245 1246 1246 1246 1247 1248 1246 1245 1241 1236 1237 1237 1234 1230 1225 1221 1213 1207
1252 1248 1245 1243 1240 1238 1236 1234 1233 1232 1232 1232 1233 1234 1234 1235 1236 1237 1237 1238 1238 1239 1239 1239 1240 1239 1238 1235 1231 1227 1224 1223 1221 1218 1215 1211 1205 1194
1247 1244 1241 1238 1236 1233 1232 1230 1229 1229 1228 1228 1229 1229 1229 1230 1230 1231 1232 1232 1232 1232 1232 1231 1231 1230 1228 1226 1223 1218 1214 1211 1207 1203 1198 1196 1192 1185